Regional Weather Roundup
Issued by NWS State College, PA

Home | Current Version | Previous Version | Text Only | Print | Product List | Glossary Off
Versions: 1 2 3 4 5 6 7 8 9 10 11 12 13 14 15 16 17 18 19 20 21 22 23 24 25 26 27 28 29 30 31 32 33 34 35 36 37 38 39 40 41 42 43 44 45 46 47 48 49 50

000
ASUS41 KCTP 260303
RWRCTP

REGIONAL WEATHER ROUNDUP
NATIONAL WEATHER SERVICE STATE COLLEGE PA
1100 PM EDT SAT APR 25 2015

Note: "fair" indicates few or no clouds below 12,000 feet with no
significant weather and/or obstructions to visibility.

* = STATION THAT DOES NOT REPORT PRECIPITATION /E.G. RAIN...SNOW...ETC/
    THUNDER OR FOG.

PAZ002>004-007>009-013>016-020>023-029>032-260400-
WESTERN PENNSYLVANIA

CITY           SKY/WX    TMP DP  RH WIND       PRES   REMARKS
ERIE           PTCLDY    41  25  53 E9        29.77F
MEADVILLE      MOCLDY    40  25  55 NE14G21   29.73F
FRANKLIN*      MOCLDY    39  25  56 N12       29.73S
NEW CASTLE     FAIR      45  28  51 N9        29.71F
BEAVER COUNTY  NOT AVBL
BUTLER*        CLOUDY    45  25  45 NE6       29.68F
PITTSBURGH INT CLOUDY    50  17  27 N8        29.65F
PITTSBURGH     CLOUDY    48  17  29 NE5       29.63F
INDIANA*       PTCLDY    46  25  42 E3        29.70F
LATROBE        NOT AVBL
WASHINGTON CO* CLOUDY    45  36  70 SW7       29.69R
$$

PAZ004>006-010>012-017>019-024>028-033>037-041-042-045-046-049>053-260400-
CENTRAL PENNSYLVANIA

CITY           SKY/WX    TMP DP  RH WIND       PRES   REMARKS
BRADFORD       PTCLDY    39  25  57 NE9       29.73S
DUBOIS         MOCLDY    44  21  40 NE8       29.68F
CLEARFIELD     MOCLDY    39  24  55 N6        29.70F
JOHNSTOWN      CLOUDY    42  27  55 E3        29.65F
ALTOONA        CLOUDY    44  29  55 S3        29.69F
STATE COLLEGE  MOCLDY    46  20  35 CALM      29.70F
WILLIAMSPORT   MOCLDY    48  24  39 N3        29.73S
SELINSGROVE    MOCLDY    43  30  60 NE7       29.73R
FT INDIANTOWN  NOT AVBL
CAPITAL CITY   CLOUDY    47  29  49 W5        29.72S
HARRISBURG     CLOUDY    47  30  51 NW6       29.71S
YORK           CLOUDY    45  27  49 CALM      29.73R
$$

PAZ038>040-043-044-047-048-054-055-060>062-067>071-260400-
EASTERN PENNSYLVANIA

CITY           SKY/WX    TMP DP  RH WIND       PRES   REMARKS
SCRANTON       PTCLDY    45  26  47 NE3       29.72F
MOUNT POCONO   PTCLDY    41  24  51 N8        29.69F
ALLENTOWN      CLOUDY    46  26  45 CALM      29.70S
QUAKERTOWN*    CLOUDY    45  32  61 CALM      29.71S
READING        CLOUDY    49  25  39 CALM      29.70S
LANCASTER      CLOUDY    47  28  47 CALM      29.71S
COATESVILLE    CLOUDY    45  36  70 W3        29.72R
POTTSTOWN      CLOUDY    45  27  49 CALM      29.72S
BLUE BELL      CLOUDY    50  30  46 CALM      29.70S
DOYLESTOWN     CLOUDY    47  26  44 SW3       29.69F
WILLOW GROVE   NOT AVBL
NORTH PHILA    CLOUDY    50  27  40 W9        29.71F
PHILADELPHIA   CLOUDY    50  34  54 SW8       29.72S
$$



USA.gov is the U.S. government's official web portal to all federal, state and local government web resources and services.